Regional Weather Roundup
Issued by NWS

Home | Current Version | Previous Version | Text Only | Print | Product List | Glossary On
Versions: 1 2 3 4 5 6 7 8 9 10 11 12 13 14 15 16 17 18 19 20 21 22 23 24 25 26 27 28 29 30 31 32 33 34 35 36 37 38 39 40 41 42 43 44 45 46 47 48 49 50
247
ASUS44 KJAN 261810
RWRMS

MISSISSIPPI HOURLY WEATHER ROUNDUP
NATIONAL WEATHER SERVICE JACKSON MS
1200 PM CST THU FEB 26 2015

NOTE: "FAIR: INDICATES FEW OR NO CLOUDS BELOW 12,000 FEET WITH NO
SIGNIFICANT WEATHER AND/OR OBSTRUCTIONS TO VISIBILITY.

MSZ001>002-007>008-010>013-018>021-025>028-034>036-261900-
NORTHWEST MISSISSIPPI

CITY           SKY/WX    TMP DP  RH WIND       PRES   REMARKS
CLARKSDALE     CLOUDY    32  32 100 NW6       30.19R WCI  26
CLEVELAND      CLOUDY    32  32  99 NW9       30.18S WCI  24
GREENWOOD        N/A    N/A N/A N/A MISG      30.17R
GREENVILLE     CLOUDY    33  30  88 NW10      30.18R FOG     WCI  25
6HR MIN TEMP:  29; 6HR MAX TEMP:  34;

OLIVE BRANCH   PTSUNNY   36  36 100 NW9       30.13R WCI  29
OXFORD         PTSUNNY   32  28  86 NW10      30.15R WCI  24
TUNICA         MOCLDY    34  34 100 NW14      30.18R WCI  24
$$

MSZ003>006-009-014>017-022>024-029>033-037>039-261900-
NORTHEAST MISSISSIPPI

CITY           SKY/WX    TMP DP  RH WIND       PRES   REMARKS
COLUMBUS AFB   CLOUDY    34  30  86 NW8       30.12R WCI  27
6HR MIN TEMP:  25; 6HR MAX TEMP:  34; 6HR PCP: 10.49;

CORINTH        FAIR      39  30  70 W7        30.08R WCI  34
GOLDN TRIANGLE PTSUNNY   36  28  75 N8        30.11R WCI  29
STARKVILLE     MOCLDY    36  32  87 NW5       30.12R WCI  32
TUPELO         PTSUNNY   37  29  72 VRB6      30.11R WCI  32
6HR MIN TEMP:  29; 6HR MAX TEMP:  38;

$$

MSZ040-058-261900-
CENTRAL MISSISSIPPI

CITY           SKY/WX    TMP DP  RH WIND       PRES   REMARKS
JACKSON INTL   PTSUNNY   44  32  62 N8        30.12F
6HR MIN TEMP:  34; 6HR MAX TEMP:  44;

JACKSON HAWKNS MOSUNNY   43  31  62 N9        30.13S
6HR MIN TEMP:  33; 6HR MAX TEMP:  43;

MERIDIAN KEY   PTSUNNY   41  30  65 N10       30.10S
6HR MIN TEMP:  33; 6HR MAX TEMP:  42;

MERIDIAN NAS   PTSUNNY   44  30  57 N14       30.09F
6HR MIN TEMP:  33; 6HR MAX TEMP:  44;

VICKSBURG      CLOUDY    39  32  76 VRB5      30.17S
6HR MIN TEMP:  33; 6HR MAX TEMP:  39;

$$

MSZ059>079-261900-
SOUTH MISSISSIPPI

CITY           SKY/WX    TMP DP  RH WIND       PRES   REMARKS
BROOKHAVEN     FAIR      41  34  75 N10       30.13F
HATTIESBURG    CLOUDY    40  33  76 N12       30.11R WCI  33
6HR MIN TEMP:  36; 6HR MAX TEMP:  40;

MCCOMB         PTSUNNY   41  32  70 N14       30.11F
6HR MIN TEMP:  33; 6HR MAX TEMP:  41;

NATCHEZ        PTSUNNY   39  32  75 N9        30.14F WCI  33
6HR MIN TEMP:  34; 6HR MAX TEMP:  39;

PINE BELT      CLOUDY    39  30  70 N10       30.11R WCI  32
6HR MIN TEMP:  36; 6HR MAX TEMP:  39;

$$

MSZ080>082-261900-
COASTAL MISSISSIPPI

CITY           SKY/WX    TMP DP  RH WIND       PRES   REMARKS
BAY ST LOUIS   PTSUNNY   45  34  65 N12G17    30.08F
BILOXI         PTSUNNY   46  37  69 N10       30.05F
6HR MIN TEMP:  38; 6HR MAX TEMP:  46;

PASCAGOULA     PTSUNNY   47  36  65 N10G17    30.05F
6HR MIN TEMP:  37; 6HR MAX TEMP:  48;

GULFPORT       CLOUDY    45  35  68 N16       30.06F
6HR MIN TEMP:  38; 6HR MAX TEMP:  45;

$$



USA.gov is the U.S. government's official web portal to all federal, state and local government web resources and services.